Regional Weather Roundup
Issued by NWS Spokane, WA

Home | Current Version | Previous Version | Text Only | Print | Product List | Glossary On
Versions: 1 2 3 4 5 6 7 8 9 10 11 12 13 14 15 16 17 18 19 20 21 22 23 24 25 26 27 28 29 30 31 32 33 34 35 36 37 38 39 40 41 42 43 44 45 46 47 48 49 50
457
NZUS01 KOTX 270010
RWROTX

Eastern Washington/Northern Idaho Roundup
National Weather Service, Spokane WA
500 PM PDT MON JUN 26 2017

Note: "fair" indicated few or no clouds below 12,000 feet with no
significant weather and/or obstructions to visibility.

...Northeast Washington and Northern Idaho Panhandle...

CITY           SKY/WX    TMP DP  RH WIND       PRES   REMARKS
Spokane Intl   PTSUNNY   88  49  25 S7        29.78F
Spokane Downto MOSUNNY   91  49  23 S10       29.76F
Coeur d Alene  MOSUNNY   84  60  44 SW5       29.80F
Deer Park      MOSUNNY   86  52  30 S10       29.77F
Sandpoint      SUNNY     84  54  34 SE6       29.76F
Bonners Ferry  FAIR      86  54  32 SW7       29.74F

...Southeast Washington and southern Idaho Panhandle...

CITY           SKY/WX    TMP DP  RH WIND       PRES   REMARKS
Walla Walla    CLOUDY    85  50  29 E30G44    29.68F
Pullman/Moscow CLOUDY    85  55  35 S5        29.83S HAZE
Lewiston       CLOUDY    89  45  21 SW32G40   29.77R SQUALL  THUNDER
Lowell           N/A     77  63  61 S3        29.74R
Grangeville    FAIR      73  50  43 W20G26    29.88R

...Columbia Basin...

CITY           SKY/WX    TMP DP  RH WIND       PRES   REMARKS
Ephrata        PTSUNNY   95  39  14 W8        29.69F HX  91
Moses Lake     PTSUNNY   97  43  15 W8        29.68F HX  93
Pasco          CLOUDY    97  55  24 SE14      29.64F HX  95
Richland       CLOUDY    99  55  23 N15       29.62F HX  97
Pendleton      TSTM      67  62  84 SW17G64   29.85R SQUALL  VSB 1/4

...East Slopes Cascades...

CITY           SKY/WX    TMP DP  RH WIND       PRES   REMARKS
The Dalles     CLOUDY    81  56  42 W21G32    29.78S
Yakima         PTSUNNY   97  46  17 N13       29.71F HX  93
Ellensburg     LGT RAIN  86  48  26 NW31G37   29.78S
Stampede Pass  MOSUNNY   65  52  62 W8G20     29.99F
Wenatchee      PTSUNNY   90  43  19 W16       29.71F
Omak           CLOUDY    94  45  18 S6        29.67F HX  90
Sunnyside      CLOUDY    86  57  36 W12       29.66F

...Southern British Columbia...

CITY           SKY/WX    TMP DP  RH WIND       PRES   REMARKS
Penticton      PTSUNNY   88  57  35 S12       29.65F
Castlegar      PTSUNNY   77  61  57 VRB2      29.72F
Cranbrook      MOSUNNY   82  48  30 SE9       29.75F
Osoyoos          N/A     86  57  37 NE2         N/A
Creston          N/A     86  57  37 W5          N/A

...Western Montana...

CITY           SKY/WX    TMP DP  RH WIND       PRES   REMARKS
Kalispell      PTCLDY    83  50  31 N9        29.80F
Missoula       SUNNY     90  49  24 N14G24    29.76F

...Neighboring Cities...

CITY           SKY/WX    TMP DP  RH WIND       PRES   REMARKS
Seattle        PTSUNNY   70  54  56 SW12      29.96F
Portland       MOSUNNY   77  57  50 NW8       29.93F
Boise          PTSUNNY   93  48  21 W14       29.78R
Great Falls    CLOUDY    93  33  12 W23G29    29.76F
Calgary        PTSUNNY   84  39  20 W6        29.67F



USA.gov is the U.S. government's official web portal to all federal, state and local government web resources and services.